Time,TemperatureF,DewpointF,PressureIn,WindDirection,WindDirectionDegrees,WindSpeedMPH,WindSpeedGustMPH,Humidity,HourlyPrecipIn,Conditions,Clouds,dailyrainin,SoftwareType,DateUTC
2013-10-30 00:01:00,26.3,19.1,30.35,South,177,0.0,0.0,74,0.00,,,0.00,Wunderground v.1.15,2013-10-30 04:01:00,
2013-10-30 00:02:00,26.3,19.1,30.35,South,177,0.0,0.0,74,0.00,,,0.00,Wunderground v.1.15,2013-10-30 04:02:00,
2013-10-30 00:03:00,26.3,19.1,30.35,South,177,0.0,0.0,74,0.00,,,0.00,Wunderground v.1.15,2013-10-30 04:03:00,
2013-10-30 00:04:00,26.3,19.1,30.35,South,177,0.0,0.0,74,0.00,,,0.00,Wunderground v.1.15,2013-10-30 04:04:00,
2013-10-30 00:10:00,26.3,19.1,30.35,South,177,0.0,0.0,74,0.00,,,0.00,Wunderground v.1.15,2013-10-30 04:10:00,
2013-10-30 00:13:00,26.3,19.1,30.35,South,177,0.0,0.0,74,0.00,,,0.00,Wunderground v.1.15,2013-10-30 04:13:00,
2013-10-30 00:18:00,26.3,19.5,30.35,South,177,0.0,0.0,75,0.00,,,0.00,Wunderground v.1.15,2013-10-30 04:18:00,
2013-10-30 00:21:00,26.3,19.1,30.35,South,177,0.0,0.0,74,0.00,,,0.00,Wunderground v.1.15,2013-10-30 04:21:00,
2013-10-30 00:27:00,26.1,18.9,30.35,South,177,0.0,0.0,74,0.00,,,0.00,Wunderground v.1.15,2013-10-30 04:27:00,
2013-10-30 00:32:00,26.1,18.9,30.34,South,177,0.0,0.0,74,0.00,,,0.00,Wunderground v.1.15,2013-10-30 04:32:00,
2013-10-30 00:37:00,26.1,18.9,30.34,South,177,0.0,0.0,74,0.00,,,0.00,Wunderground v.1.15,2013-10-30 04:37:00,
2013-10-30 00:43:00,26.1,18.9,30.34,South,177,0.0,0.0,74,0.00,,,0.00,Wunderground v.1.15,2013-10-30 04:43:00,
2013-10-30 00:49:00,26.1,19.3,30.33,South,177,0.0,0.0,75,0.00,,,0.00,Wunderground v.1.15,2013-10-30 04:49:00,
2013-10-30 00:54:00,26.1,19.3,30.33,South,177,0.0,0.0,75,0.00,,,0.00,Wunderground v.1.15,2013-10-30 04:54:00,
2013-10-30 01:00:00,26.1,19.3,30.33,South,177,0.0,0.0,75,0.00,,,0.00,Wunderground v.1.15,2013-10-30 05:00:00,
2013-10-30 01:05:00,26.0,19.2,30.33,South,177,0.0,0.0,75,0.00,,,0.00,Wunderground v.1.15,2013-10-30 05:05:00,
2013-10-30 01:11:00,26.0,19.2,30.33,South,177,0.0,0.0,75,0.00,,,0.00,Wunderground v.1.15,2013-10-30 05:11:00,
2013-10-30 01:16:00,26.0,19.2,30.33,South,177,0.0,0.0,75,0.00,,,0.00,Wunderground v.1.15,2013-10-30 05:16:00,
2013-10-30 01:21:00,26.0,19.2,30.33,South,177,0.0,0.0,75,0.00,,,0.00,Wunderground v.1.15,2013-10-30 05:21:00,
2013-10-30 01:26:00,26.0,19.2,30.33,South,177,0.0,0.0,75,0.00,,,0.00,Wunderground v.1.15,2013-10-30 05:26:00,
2013-10-30 01:31:00,26.0,19.2,30.32,South,177,0.0,0.0,75,0.00,,,0.00,Wunderground v.1.15,2013-10-30 05:31:00,
2013-10-30 01:36:00,26.0,19.2,30.32,South,177,0.0,0.0,75,0.00,,,0.00,Wunderground v.1.15,2013-10-30 05:36:00,
2013-10-30 01:42:00,26.0,19.2,30.32,South,177,0.0,0.0,75,0.00,,,0.00,Wunderground v.1.15,2013-10-30 05:42:00,
2013-10-30 01:47:00,26.0,19.5,30.32,South,177,0.0,0.0,76,0.00,,,0.00,Wunderground v.1.15,2013-10-30 05:47:00,
2013-10-30 01:53:00,26.0,19.5,30.32,South,177,0.0,0.0,76,0.00,,,0.00,Wunderground v.1.15,2013-10-30 05:53:00,
2013-10-30 01:58:00,26.0,19.8,30.32,South,177,0.0,0.0,77,0.00,,,0.00,Wunderground v.1.15,2013-10-30 05:58:00,
2013-10-30 02:03:00,26.0,19.8,30.32,South,177,0.0,0.0,77,0.00,,,0.00,Wunderground v.1.15,2013-10-30 06:03:00,
2013-10-30 02:08:00,26.0,20.4,30.32,South,177,0.0,0.0,79,0.00,,,0.00,Wunderground v.1.15,2013-10-30 06:08:00,
2013-10-30 02:13:00,26.0,20.4,30.32,South,177,0.0,0.0,79,0.00,,,0.00,Wunderground v.1.15,2013-10-30 06:13:00,
2013-10-30 02:18:00,26.1,20.5,30.32,South,177,0.0,0.0,79,0.00,,,0.00,Wunderground v.1.15,2013-10-30 06:18:00,
2013-10-30 02:23:00,26.1,20.5,30.32,South,177,0.0,0.0,79,0.00,,,0.00,Wunderground v.1.15,2013-10-30 06:23:00,
2013-10-30 02:28:00,26.1,20.5,30.32,South,177,0.0,0.0,79,0.00,,,0.00,Wunderground v.1.15,2013-10-30 06:28:00,
2013-10-30 02:33:00,26.3,20.7,30.32,South,177,0.0,0.0,79,0.00,,,0.00,Wunderground v.1.15,2013-10-30 06:33:00,
2013-10-30 02:38:00,26.3,20.7,30.32,South,177,0.0,0.0,79,0.00,,,0.00,Wunderground v.1.15,2013-10-30 06:38:00,
2013-10-30 02:43:00,26.3,21.0,30.32,South,177,0.0,0.0,80,0.00,,,0.00,Wunderground v.1.15,2013-10-30 06:43:00,
2013-10-30 02:48:00,26.4,21.1,30.32,South,177,0.0,0.0,80,0.00,,,0.00,Wunderground v.1.15,2013-10-30 06:48:00,
2013-10-30 02:53:00,26.4,20.8,30.32,South,177,0.0,0.0,79,0.00,,,0.00,Wunderground v.1.15,2013-10-30 06:53:00,
2013-10-30 02:58:00,26.6,21.3,30.32,South,177,0.0,0.0,80,0.00,,,0.00,Wunderground v.1.15,2013-10-30 06:58:00,
2013-10-30 03:03:00,26.6,21.3,30.31,South,177,0.0,0.0,80,0.00,,,0.00,Wunderground v.1.15,2013-10-30 07:03:00,
2013-10-30 03:08:00,26.6,21.3,30.31,South,177,0.0,0.0,80,0.00,,,0.00,Wunderground v.1.15,2013-10-30 07:08:00,
2013-10-30 03:13:00,26.7,21.4,30.31,South,177,0.0,0.0,80,0.00,,,0.00,Wunderground v.1.15,2013-10-30 07:13:00,
2013-10-30 03:18:00,26.7,21.1,30.30,South,177,0.0,0.0,79,0.00,,,0.00,Wunderground v.1.15,2013-10-30 07:18:00,
2013-10-30 03:23:00,26.9,21.3,30.30,South,177,0.0,0.0,79,0.00,,,0.00,Wunderground v.1.15,2013-10-30 07:23:00,
2013-10-30 03:28:00,26.9,21.3,30.30,South,177,0.0,0.0,79,0.00,,,0.00,Wunderground v.1.15,2013-10-30 07:28:00,
2013-10-30 03:33:00,27.0,21.4,30.30,South,177,0.0,0.0,79,0.00,,,0.00,Wunderground v.1.15,2013-10-30 07:33:00,
2013-10-30 03:38:00,27.0,21.4,30.30,South,177,0.0,0.0,79,0.00,,,0.00,Wunderground v.1.15,2013-10-30 07:38:00,
2013-10-30 03:43:00,27.0,21.4,30.30,South,177,0.0,0.0,79,0.00,,,0.00,Wunderground v.1.15,2013-10-30 07:43:00,
2013-10-30 03:48:00,27.2,21.5,30.29,South,177,0.0,0.0,79,0.00,,,0.00,Wunderground v.1.15,2013-10-30 07:48:00,
2013-10-30 03:53:00,27.2,21.5,30.29,South,177,0.0,0.0,79,0.00,,,0.00,Wunderground v.1.15,2013-10-30 07:53:00,
2013-10-30 03:58:00,27.2,21.2,30.29,South,177,0.0,0.0,78,0.00,,,0.00,Wunderground v.1.15,2013-10-30 07:58:00,
2013-10-30 04:03:00,27.3,21.3,30.28,South,177,0.0,0.0,78,0.00,,,0.00,Wunderground v.1.15,2013-10-30 08:03:00,
2013-10-30 04:08:00,27.3,21.3,30.28,South,177,0.0,0.0,78,0.00,,,0.00,Wunderground v.1.15,2013-10-30 08:08:00,
2013-10-30 04:13:00,27.3,21.3,30.28,South,177,0.0,0.0,78,0.00,,,0.00,Wunderground v.1.15,2013-10-30 08:13:00,
2013-10-30 04:18:00,27.5,21.5,30.28,South,177,0.0,0.0,78,0.00,,,0.00,Wunderground v.1.15,2013-10-30 08:18:00,
2013-10-30 04:23:00,27.5,21.5,30.28,South,177,0.0,0.0,78,0.00,,,0.00,Wunderground v.1.15,2013-10-30 08:23:00,
2013-10-30 04:29:00,27.6,21.6,30.28,South,177,0.0,0.0,78,0.00,,,0.00,Wunderground v.1.15,2013-10-30 08:29:00,
2013-10-30 04:34:00,27.6,21.6,30.28,South,177,0.0,0.0,78,0.00,,,0.00,Wunderground v.1.15,2013-10-30 08:34:00,
2013-10-30 04:39:00,27.6,21.6,30.28,South,177,0.0,0.0,78,0.00,,,0.00,Wunderground v.1.15,2013-10-30 08:39:00,
2013-10-30 04:44:00,27.6,21.6,30.28,South,177,0.0,0.0,78,0.00,,,0.00,Wunderground v.1.15,2013-10-30 08:44:00,
2013-10-30 04:49:00,27.8,21.5,30.28,South,177,0.0,0.0,77,0.00,,,0.00,Wunderground v.1.15,2013-10-30 08:49:00,
2013-10-30 04:54:00,27.8,21.5,30.28,South,177,0.0,0.0,77,0.00,,,0.00,Wunderground v.1.15,2013-10-30 08:54:00,
2013-10-30 04:59:00,27.8,21.5,30.28,South,177,0.0,0.0,77,0.00,,,0.00,Wunderground v.1.15,2013-10-30 08:59:00,
2013-10-30 05:04:00,27.8,21.5,30.27,South,177,0.0,0.0,77,0.00,,,0.00,Wunderground v.1.15,2013-10-30 09:04:00,
2013-10-30 05:09:00,27.9,21.6,30.27,South,177,0.0,0.0,77,0.00,,,0.00,Wunderground v.1.15,2013-10-30 09:09:00,
2013-10-30 05:14:00,27.9,21.6,30.27,South,177,0.0,0.0,77,0.00,,,0.00,Wunderground v.1.15,2013-10-30 09:14:00,
2013-10-30 05:20:00,27.9,21.6,30.28,South,177,0.0,0.0,77,0.00,,,0.00,Wunderground v.1.15,2013-10-30 09:20:00,
2013-10-30 05:25:00,28.1,21.8,30.28,South,177,0.0,0.0,77,0.00,,,0.00,Wunderground v.1.15,2013-10-30 09:25:00,
2013-10-30 05:30:00,28.1,22.1,30.29,South,177,0.0,0.0,78,0.00,,,0.00,Wunderground v.1.15,2013-10-30 09:30:00,
2013-10-30 05:35:00,28.1,22.1,30.29,South,177,0.0,0.0,78,0.00,,,0.00,Wunderground v.1.15,2013-10-30 09:35:00,
2013-10-30 05:40:00,28.2,22.2,30.29,South,177,0.0,0.0,78,0.00,,,0.00,Wunderground v.1.15,2013-10-30 09:40:00,
2013-10-30 05:45:00,28.2,22.2,30.29,South,177,0.0,0.0,78,0.00,,,0.00,Wunderground v.1.15,2013-10-30 09:45:00,
2013-10-30 05:50:00,28.2,22.2,30.29,South,177,0.0,0.0,78,0.00,,,0.00,Wunderground v.1.15,2013-10-30 09:50:00,
2013-10-30 05:55:00,28.2,22.2,30.29,South,177,0.0,0.0,78,0.00,,,0.00,Wunderground v.1.15,2013-10-30 09:55:00,
2013-10-30 06:00:00,28.4,22.4,30.27,South,177,0.0,0.0,78,0.00,,,0.00,Wunderground v.1.15,2013-10-30 10:00:00,
2013-10-30 06:05:00,28.4,22.4,30.27,South,177,0.0,0.0,78,0.00,,,0.00,Wunderground v.1.15,2013-10-30 10:05:00,
2013-10-30 06:10:00,28.4,22.1,30.27,South,177,0.0,0.0,77,0.00,,,0.00,Wunderground v.1.15,2013-10-30 10:10:00,
2013-10-30 06:15:00,28.4,22.1,30.28,South,177,0.0,0.0,77,0.00,,,0.00,Wunderground v.1.15,2013-10-30 10:15:00,
2013-10-30 06:20:00,28.5,22.2,30.28,South,177,0.0,0.0,77,0.00,,,0.00,Wunderground v.1.15,2013-10-30 10:20:00,
2013-10-30 06:25:00,28.5,22.5,30.28,South,177,0.0,0.0,78,0.00,,,0.00,Wunderground v.1.15,2013-10-30 10:25:00,
2013-10-30 06:30:00,28.5,22.2,30.28,South,177,0.0,0.0,77,0.00,,,0.00,Wunderground v.1.15,2013-10-30 10:30:00,
2013-10-30 06:35:00,28.5,22.2,30.28,South,177,0.0,0.0,77,0.00,,,0.00,Wunderground v.1.15,2013-10-30 10:35:00,
2013-10-30 06:40:00,28.7,22.4,30.28,South,177,0.0,0.0,77,0.00,,,0.00,Wunderground v.1.15,2013-10-30 10:40:00,
2013-10-30 06:45:00,28.7,22.7,30.28,South,177,0.0,0.0,78,0.00,,,0.00,Wunderground v.1.15,2013-10-30 10:45:00,
2013-10-30 06:50:00,28.7,22.7,30.28,South,177,0.0,0.0,78,0.00,,,0.00,Wunderground v.1.15,2013-10-30 10:50:00,
2013-10-30 06:55:00,28.8,22.8,30.28,South,177,0.0,0.0,78,0.00,,,0.00,Wunderground v.1.15,2013-10-30 10:55:00,
2013-10-30 07:00:00,28.8,22.8,30.28,South,177,0.0,0.0,78,0.00,,,0.00,Wunderground v.1.15,2013-10-30 11:00:00,
2013-10-30 07:05:00,28.8,22.8,30.28,South,177,0.0,0.0,78,0.00,,,0.00,Wunderground v.1.15,2013-10-30 11:05:00,
2013-10-30 07:10:00,28.8,22.8,30.28,South,177,0.0,0.0,78,0.00,,,0.00,Wunderground v.1.15,2013-10-30 11:10:00,
2013-10-30 07:15:00,29.0,23.0,30.28,South,177,0.0,0.0,78,0.00,,,0.00,Wunderground v.1.15,2013-10-30 11:15:00,
2013-10-30 07:20:00,29.0,23.0,30.28,South,177,0.0,0.0,78,0.00,,,0.00,Wunderground v.1.15,2013-10-30 11:20:00,
2013-10-30 07:25:00,29.0,23.0,30.28,South,177,0.0,0.0,78,0.00,,,0.00,Wunderground v.1.15,2013-10-30 11:25:00,
2013-10-30 07:30:00,29.0,23.0,30.28,South,177,0.0,0.0,78,0.00,,,0.00,Wunderground v.1.15,2013-10-30 11:30:00,
2013-10-30 07:35:00,29.1,23.1,30.28,South,177,0.0,0.0,78,0.00,,,0.00,Wunderground v.1.15,2013-10-30 11:35:00,
2013-10-30 07:40:00,29.1,22.8,30.28,South,177,0.0,0.0,77,0.00,,,0.00,Wunderground v.1.15,2013-10-30 11:40:00,
2013-10-30 07:45:00,29.1,22.8,30.28,South,177,0.0,0.0,77,0.00,,,0.00,Wunderground v.1.15,2013-10-30 11:45:00,
2013-10-30 07:50:00,29.1,22.8,30.28,South,177,0.0,0.0,77,0.00,,,0.00,Wunderground v.1.15,2013-10-30 11:50:00,
2013-10-30 07:55:00,29.3,22.7,30.28,South,177,0.0,0.0,76,0.00,,,0.00,Wunderground v.1.15,2013-10-30 11:55:00,
2013-10-30 08:00:00,29.3,22.7,30.28,South,177,0.0,0.0,76,0.00,,,0.00,Wunderground v.1.15,2013-10-30 12:00:00,
2013-10-30 08:05:00,29.4,22.8,30.28,South,177,0.0,0.0,76,0.00,,,0.00,Wunderground v.1.15,2013-10-30 12:05:00,
2013-10-30 08:10:00,29.4,22.8,30.28,South,177,0.0,0.0,76,0.00,,,0.00,Wunderground v.1.15,2013-10-30 12:10:00,
2013-10-30 08:15:00,29.5,22.9,30.29,South,177,0.0,0.0,76,0.00,,,0.00,Wunderground v.1.15,2013-10-30 12:15:00,
2013-10-30 08:20:00,29.5,22.9,30.29,South,177,0.0,0.0,76,0.00,,,0.00,Wunderground v.1.15,2013-10-30 12:20:00,
2013-10-30 08:25:00,29.7,23.1,30.29,South,177,0.0,0.0,76,0.00,,,0.00,Wunderground v.1.15,2013-10-30 12:25:00,
2013-10-30 08:30:00,29.8,23.2,30.29,South,177,0.0,0.0,76,0.00,,,0.00,Wunderground v.1.15,2013-10-30 12:30:00,
2013-10-30 08:35:00,30.0,23.4,30.29,South,177,0.0,0.0,76,0.00,,,0.00,Wunderground v.1.15,2013-10-30 12:35:00,
2013-10-30 08:41:00,30.0,23.4,30.29,South,177,0.0,0.0,76,0.00,,,0.00,Wunderground v.1.15,2013-10-30 12:41:00,
2013-10-30 08:45:00,30.1,23.4,30.29,South,177,0.0,0.0,76,0.00,,,0.00,Wunderground v.1.15,2013-10-30 12:45:00,
2013-10-30 08:51:00,30.3,23.6,30.29,South,177,0.0,0.0,76,0.00,,,0.00,Wunderground v.1.15,2013-10-30 12:51:00,
2013-10-30 08:56:00,30.4,23.7,30.29,South,177,0.0,0.0,76,0.00,,,0.00,Wunderground v.1.15,2013-10-30 12:56:00,
2013-10-30 09:01:00,30.6,23.9,30.29,South,177,0.0,0.0,76,0.00,,,0.00,Wunderground v.1.15,2013-10-30 13:01:00,
2013-10-30 09:06:00,30.7,24.0,30.29,South,177,0.0,0.0,76,0.00,,,0.00,Wunderground v.1.15,2013-10-30 13:06:00,
2013-10-30 09:11:00,30.9,24.2,30.29,South,177,0.0,0.0,76,0.00,,,0.00,Wunderground v.1.15,2013-10-30 13:11:00,
2013-10-30 09:16:00,31.0,24.3,30.29,South,177,0.0,0.0,76,0.00,,,0.00,Wunderground v.1.15,2013-10-30 13:16:00,
2013-10-30 09:21:00,31.2,24.5,30.29,South,177,0.0,0.0,76,0.00,,,0.00,Wunderground v.1.15,2013-10-30 13:21:00,
2013-10-30 09:26:00,31.5,25.1,30.29,South,177,0.0,0.0,77,0.00,,,0.00,Wunderground v.1.15,2013-10-30 13:26:00,
2013-10-30 09:31:00,31.6,24.9,30.29,South,177,0.0,0.0,76,0.00,,,0.00,Wunderground v.1.15,2013-10-30 13:31:00,
2013-10-30 09:36:00,31.8,24.8,30.29,South,177,0.0,0.0,75,0.00,,,0.00,Wunderground v.1.15,2013-10-30 13:36:00,
2013-10-30 09:41:00,31.9,24.6,30.29,South,177,0.0,0.0,74,0.00,,,0.00,Wunderground v.1.15,2013-10-30 13:41:00,
2013-10-30 09:46:00,32.1,24.7,30.29,South,177,0.0,0.0,74,0.00,,,0.00,Wunderground v.1.15,2013-10-30 13:46:00,
2013-10-30 09:51:00,32.2,25.2,30.29,South,177,0.0,0.0,75,0.00,,,0.00,Wunderground v.1.15,2013-10-30 13:51:00,
2013-10-30 09:56:00,32.4,25.4,30.29,South,177,0.0,0.0,75,0.00,,,0.00,Wunderground v.1.15,2013-10-30 13:56:00,
2013-10-30 10:01:00,32.4,25.4,30.29,South,177,0.0,0.0,75,0.00,,,0.00,Wunderground v.1.15,2013-10-30 14:01:00,
2013-10-30 10:06:00,32.5,25.1,30.29,South,177,0.0,0.0,74,0.00,,,0.00,Wunderground v.1.15,2013-10-30 14:06:00,
2013-10-30 10:11:00,32.7,25.6,30.29,South,177,0.0,0.0,75,0.00,,,0.00,Wunderground v.1.15,2013-10-30 14:11:00,
2013-10-30 10:16:00,32.9,25.2,30.28,South,177,0.0,0.0,73,0.00,,,0.00,Wunderground v.1.15,2013-10-30 14:16:00,
2013-10-30 10:21:00,33.1,25.4,30.28,South,177,0.0,0.0,73,0.00,,,0.00,Wunderground v.1.15,2013-10-30 14:21:00,
2013-10-30 10:26:00,33.2,25.5,30.28,South,177,0.0,0.0,73,0.00,,,0.00,Wunderground v.1.15,2013-10-30 14:26:00,
2013-10-30 10:31:00,33.5,25.8,30.28,South,177,0.0,0.0,73,0.00,,,0.00,Wunderground v.1.15,2013-10-30 14:31:00,
2013-10-30 10:36:00,33.7,25.6,30.28,South,177,0.0,0.0,72,0.00,,,0.00,Wunderground v.1.15,2013-10-30 14:36:00,
2013-10-30 10:42:00,34.0,25.9,30.28,South,177,0.0,0.0,72,0.00,,,0.00,Wunderground v.1.15,2013-10-30 14:42:00,
2013-10-30 10:47:00,34.3,26.5,30.27,South,177,0.0,0.0,73,0.00,,,0.00,Wunderground v.1.15,2013-10-30 14:47:00,
2013-10-30 10:52:00,34.4,27.0,30.27,South,177,0.0,0.0,74,0.00,,,0.00,Wunderground v.1.15,2013-10-30 14:52:00,
2013-10-30 10:57:00,34.9,26.8,30.27,South,177,0.0,0.0,72,0.00,,,0.00,Wunderground v.1.15,2013-10-30 14:57:00,
2013-10-30 11:02:00,35.0,26.9,30.27,South,177,0.0,0.0,72,0.00,,,0.00,Wunderground v.1.15,2013-10-30 15:02:00,
2013-10-30 11:07:00,35.3,27.5,30.27,South,177,0.0,0.0,73,0.00,,,0.00,Wunderground v.1.15,2013-10-30 15:07:00,
2013-10-30 11:12:00,35.6,28.1,30.27,South,177,0.0,0.0,74,0.00,,,0.00,Wunderground v.1.15,2013-10-30 15:12:00,
2013-10-30 11:17:00,36.0,28.5,30.27,South,177,0.0,0.0,74,0.00,,,0.00,Wunderground v.1.15,2013-10-30 15:17:00,
2013-10-30 11:22:00,36.5,29.3,30.27,South,177,0.0,1.0,75,0.00,,,0.00,Wunderground v.1.15,2013-10-30 15:22:00,
2013-10-30 11:27:00,36.9,29.7,30.27,South,179,0.0,1.0,75,0.00,,,0.00,Wunderground v.1.15,2013-10-30 15:27:00,
2013-10-30 11:32:00,37.2,30.0,30.27,South,179,0.0,1.0,75,0.00,,,0.00,Wunderground v.1.15,2013-10-30 15:32:00,
2013-10-30 11:37:00,37.5,30.3,30.27,South,179,0.0,0.0,75,0.00,,,0.00,Wunderground v.1.15,2013-10-30 15:37:00,
2013-10-30 11:42:00,37.9,30.7,30.27,South,179,0.0,1.0,75,0.00,,,0.00,Wunderground v.1.15,2013-10-30 15:42:00,
2013-10-30 11:47:00,38.2,31.0,30.26,South,179,0.0,0.0,75,0.00,,,0.00,Wunderground v.1.15,2013-10-30 15:47:00,
2013-10-30 11:52:00,38.5,30.9,30.26,South,179,0.0,1.0,74,0.00,,,0.00,Wunderground v.1.15,2013-10-30 15:52:00,
2013-10-30 11:57:00,38.8,31.2,30.26,South,179,0.0,1.0,74,0.00,,,0.00,Wunderground v.1.15,2013-10-30 15:57:00,
2013-10-30 12:02:00,39.1,31.5,30.25,South,179,0.0,1.0,74,0.00,,,0.00,Wunderground v.1.15,2013-10-30 16:02:00,
2013-10-30 12:07:00,39.3,31.7,30.25,South,179,0.0,0.0,74,0.00,,,0.00,Wunderground v.1.15,2013-10-30 16:07:00,
2013-10-30 12:12:00,39.6,32.0,30.25,South,170,0.0,1.0,74,0.00,,,0.00,Wunderground v.1.15,2013-10-30 16:12:00,
2013-10-30 12:17:00,39.9,31.9,30.24,SE,138,0.0,1.0,73,0.00,,,0.00,Wunderground v.1.15,2013-10-30 16:17:00,
2013-10-30 12:22:00,40.1,32.1,30.24,NE,49,0.0,2.0,73,0.00,,,0.00,Wunderground v.1.15,2013-10-30 16:22:00,
2013-10-30 12:27:00,40.3,31.6,30.24,NE,49,0.0,1.0,71,0.00,,,0.00,Wunderground v.1.15,2013-10-30 16:27:00,
2013-10-30 12:32:00,40.6,32.3,30.24,ENE,64,0.0,1.0,72,0.00,,,0.00,Wunderground v.1.15,2013-10-30 16:32:00,
2013-10-30 12:37:00,40.8,32.5,30.24,ENE,64,0.0,0.0,72,0.00,,,0.00,Wunderground v.1.15,2013-10-30 16:37:00,
2013-10-30 12:42:00,40.9,32.6,30.24,ENE,64,0.0,0.0,72,0.00,,,0.00,Wunderground v.1.15,2013-10-30 16:42:00,
2013-10-30 12:47:00,41.2,32.9,30.23,ENE,64,0.0,0.0,72,0.00,,,0.00,Wunderground v.1.15,2013-10-30 16:47:00,
2013-10-30 12:52:00,41.3,32.2,30.23,ENE,66,0.0,0.0,70,0.00,,,0.00,Wunderground v.1.15,2013-10-30 16:52:00,
2013-10-30 12:57:00,41.5,32.4,30.23,ENE,66,0.0,0.0,70,0.00,,,0.00,Wunderground v.1.15,2013-10-30 16:57:00,
2013-10-30 13:02:00,41.6,32.2,30.22,ENE,64,0.0,1.0,69,0.00,,,0.00,Wunderground v.1.15,2013-10-30 17:02:00,
2013-10-30 13:08:00,41.9,32.1,30.22,ENE,63,0.0,1.0,68,0.00,,,0.00,Wunderground v.1.15,2013-10-30 17:08:00,
2013-10-30 13:13:00,42.1,32.3,30.22,ENE,63,0.0,1.0,68,0.00,,,0.00,Wunderground v.1.15,2013-10-30 17:13:00,
2013-10-30 13:18:00,42.2,32.8,30.21,ENE,63,0.0,0.0,69,0.00,,,0.00,Wunderground v.1.15,2013-10-30 17:18:00,
2013-10-30 13:23:00,42.3,33.6,30.21,ENE,63,0.0,0.0,71,0.00,,,0.00,Wunderground v.1.15,2013-10-30 17:23:00,
2013-10-30 13:28:00,42.3,32.8,30.21,ENE,63,0.0,1.0,69,0.00,,,0.00,Wunderground v.1.15,2013-10-30 17:28:00,
2013-10-30 13:33:00,42.6,33.1,30.21,ENE,63,0.0,0.0,69,0.00,,,0.00,Wunderground v.1.15,2013-10-30 17:33:00,
2013-10-30 13:38:00,42.9,32.7,30.21,ENE,63,0.0,1.0,67,0.00,,,0.00,Wunderground v.1.15,2013-10-30 17:38:00,
2013-10-30 13:43:00,43.2,33.0,30.21,ENE,63,0.0,0.0,67,0.00,,,0.00,Wunderground v.1.15,2013-10-30 17:43:00,
2013-10-30 13:48:00,43.5,33.3,30.20,ENE,63,0.0,1.0,67,0.00,,,0.00,Wunderground v.1.15,2013-10-30 17:48:00,
2013-10-30 13:53:00,43.8,33.6,30.20,ENE,63,0.0,0.0,67,0.00,,,0.00,Wunderground v.1.15,2013-10-30 17:53:00,
2013-10-30 13:58:00,44.1,33.1,30.20,ENE,63,0.0,1.0,65,0.00,,,0.00,Wunderground v.1.15,2013-10-30 17:58:00,
2013-10-30 14:03:00,44.3,33.7,30.19,ENE,63,0.0,0.0,66,0.00,,,0.00,Wunderground v.1.15,2013-10-30 18:03:00,
2013-10-30 14:08:00,44.6,33.9,30.19,ENE,63,0.0,1.0,66,0.00,,,0.00,Wunderground v.1.15,2013-10-30 18:08:00,
2013-10-30 14:13:00,44.8,34.5,30.19,SW,220,0.0,0.0,67,0.00,,,0.00,Wunderground v.1.15,2013-10-30 18:13:00,
2013-10-30 14:18:00,44.9,34.2,30.19,SW,220,0.0,0.0,66,0.00,,,0.00,Wunderground v.1.15,2013-10-30 18:18:00,
2013-10-30 14:23:00,45.1,34.0,30.19,SW,220,0.0,0.0,65,0.00,,,0.00,Wunderground v.1.15,2013-10-30 18:23:00,
2013-10-30 14:28:00,45.2,34.5,30.19,SSW,213,1.0,1.0,66,0.00,,,0.00,Wunderground v.1.15,2013-10-30 18:28:00,
2013-10-30 14:33:00,45.4,34.3,30.19,SSW,213,0.0,0.0,65,0.00,,,0.00,Wunderground v.1.15,2013-10-30 18:33:00,
2013-10-30 14:38:00,45.5,34.4,30.19,SSW,213,0.0,1.0,65,0.00,,,0.00,Wunderground v.1.15,2013-10-30 18:38:00,
2013-10-30 14:43:00,45.7,34.2,30.19,SSW,213,0.0,0.0,64,0.00,,,0.00,Wunderground v.1.15,2013-10-30 18:43:00,
2013-10-30 14:48:00,45.8,34.3,30.18,SW,218,0.0,2.0,64,0.00,,,0.00,Wunderground v.1.15,2013-10-30 18:48:00,
2013-10-30 14:53:00,46.1,34.2,30.18,SW,218,1.0,2.0,63,0.00,,,0.00,Wunderground v.1.15,2013-10-30 18:53:00,
2013-10-30 14:58:00,46.2,33.9,30.18,WNW,283,1.0,4.0,62,0.00,,,0.00,Wunderground v.1.15,2013-10-30 18:58:00,
2013-10-30 15:03:00,46.5,33.8,30.18,WNW,283,0.0,1.0,61,0.00,,,0.00,Wunderground v.1.15,2013-10-30 19:03:00,
2013-10-30 15:09:00,46.7,34.0,30.18,WNW,283,0.0,2.0,61,0.00,,,0.00,Wunderground v.1.15,2013-10-30 19:09:00,
2013-10-30 15:14:00,46.8,34.0,30.18,WNW,285,1.0,1.0,61,0.00,,,0.00,Wunderground v.1.15,2013-10-30 19:14:00,
2013-10-30 15:19:00,47.0,34.6,30.17,South,189,0.0,1.0,62,0.00,,,0.00,Wunderground v.1.15,2013-10-30 19:19:00,
2013-10-30 15:24:00,47.0,34.6,30.17,South,184,0.0,2.0,62,0.00,,,0.00,Wunderground v.1.15,2013-10-30 19:24:00,
2013-10-30 15:29:00,47.0,34.6,30.17,South,186,0.0,2.0,62,0.00,,,0.00,Wunderground v.1.15,2013-10-30 19:29:00,
2013-10-30 15:34:00,47.0,34.6,30.17,South,186,1.0,2.0,62,0.00,,,0.00,Wunderground v.1.15,2013-10-30 19:34:00,
2013-10-30 15:39:00,47.0,34.2,30.17,West,270,1.0,2.0,61,0.00,,,0.00,Wunderground v.1.15,2013-10-30 19:39:00,
2013-10-30 15:44:00,47.0,34.2,30.17,West,266,1.0,2.0,61,0.00,,,0.00,Wunderground v.1.15,2013-10-30 19:44:00,
2013-10-30 15:49:00,46.8,34.0,30.17,West,266,0.0,2.0,61,0.00,,,0.00,Wunderground v.1.15,2013-10-30 19:49:00,
2013-10-30 15:54:00,46.8,34.0,30.17,West,266,0.0,0.0,61,0.00,,,0.00,Wunderground v.1.15,2013-10-30 19:54:00,
2013-10-30 15:59:00,46.8,34.5,30.17,West,266,0.0,1.0,62,0.00,,,0.00,Wunderground v.1.15,2013-10-30 19:59:00,
2013-10-30 16:04:00,46.7,34.8,30.17,West,266,0.0,1.0,63,0.00,,,0.00,Wunderground v.1.15,2013-10-30 20:04:00,
2013-10-30 16:09:00,46.5,34.2,30.17,West,266,0.0,1.0,62,0.00,,,0.00,Wunderground v.1.15,2013-10-30 20:09:00,
2013-10-30 16:14:00,46.5,34.6,30.17,West,266,0.0,0.0,63,0.00,,,0.00,Wunderground v.1.15,2013-10-30 20:14:00,
2013-10-30 16:19:00,46.4,34.5,30.17,West,266,0.0,1.0,63,0.00,,,0.00,Wunderground v.1.15,2013-10-30 20:19:00,
2013-10-30 16:24:00,46.2,33.9,30.17,West,266,0.0,0.0,62,0.00,,,0.00,Wunderground v.1.15,2013-10-30 20:24:00,
2013-10-30 16:29:00,46.2,34.3,30.17,West,266,0.0,0.0,63,0.00,,,0.00,Wunderground v.1.15,2013-10-30 20:29:00,
2013-10-30 16:34:00,46.1,33.8,30.18,West,266,0.0,0.0,62,0.00,,,0.00,Wunderground v.1.15,2013-10-30 20:34:00,
2013-10-30 16:39:00,46.0,34.1,30.18,West,266,1.0,1.0,63,0.00,,,0.00,Wunderground v.1.15,2013-10-30 20:39:00,
2013-10-30 16:44:00,45.8,33.9,30.18,West,266,0.0,0.0,63,0.00,,,0.00,Wunderground v.1.15,2013-10-30 20:44:00,
2013-10-30 16:49:00,45.8,34.3,30.18,West,266,0.0,0.0,64,0.00,,,0.00,Wunderground v.1.15,2013-10-30 20:49:00,
2013-10-30 16:54:00,45.7,34.2,30.18,West,266,0.0,0.0,64,0.00,,,0.00,Wunderground v.1.15,2013-10-30 20:54:00,
2013-10-30 17:00:00,45.5,34.8,30.18,West,266,0.0,0.0,66,0.00,,,0.00,Wunderground v.1.15,2013-10-30 21:00:00,
2013-10-30 17:05:00,45.4,35.1,30.18,West,266,0.0,0.0,67,0.00,,,0.00,Wunderground v.1.15,2013-10-30 21:05:00,
2013-10-30 17:10:00,45.2,34.9,30.18,West,266,0.0,0.0,67,0.00,,,0.00,Wunderground v.1.15,2013-10-30 21:10:00,
2013-10-30 17:15:00,45.1,35.2,30.18,West,266,0.0,0.0,68,0.00,,,0.00,Wunderground v.1.15,2013-10-30 21:15:00,
2013-10-30 17:20:00,44.8,34.9,30.18,West,266,0.0,0.0,68,0.00,,,0.00,Wunderground v.1.15,2013-10-30 21:20:00,
2013-10-30 17:25:00,44.5,35.0,30.18,West,266,0.0,0.0,69,0.00,,,0.00,Wunderground v.1.15,2013-10-30 21:25:00,
2013-10-30 17:30:00,44.3,34.4,30.17,West,266,0.0,0.0,68,0.00,,,0.00,Wunderground v.1.15,2013-10-30 21:30:00,
2013-10-30 17:35:00,44.2,34.7,30.17,West,266,0.0,0.0,69,0.00,,,0.00,Wunderground v.1.15,2013-10-30 21:35:00,
2013-10-30 17:40:00,44.1,34.9,30.17,West,266,0.0,0.0,70,0.00,,,0.00,Wunderground v.1.15,2013-10-30 21:40:00,
2013-10-30 17:45:00,43.9,34.7,30.17,West,266,0.0,0.0,70,0.00,,,0.00,Wunderground v.1.15,2013-10-30 21:45:00,
2013-10-30 17:50:00,43.6,34.5,30.17,West,266,0.0,0.0,70,0.00,,,0.00,Wunderground v.1.15,2013-10-30 21:50:00,
2013-10-30 17:55:00,43.5,34.4,30.17,West,266,0.0,0.0,70,0.00,,,0.00,Wunderground v.1.15,2013-10-30 21:55:00,
2013-10-30 18:00:00,43.2,34.1,30.18,West,266,0.0,0.0,70,0.00,,,0.00,Wunderground v.1.15,2013-10-30 22:00:00,
2013-10-30 18:05:00,42.9,34.1,30.18,West,266,0.0,0.0,71,0.00,,,0.00,Wunderground v.1.15,2013-10-30 22:05:00,
2013-10-30 18:10:00,42.6,33.9,30.18,West,266,0.0,0.0,71,0.00,,,0.00,Wunderground v.1.15,2013-10-30 22:10:00,
2013-10-30 18:15:00,42.2,33.8,30.19,West,266,0.0,0.0,72,0.00,,,0.00,Wunderground v.1.15,2013-10-30 22:15:00,
2013-10-30 18:20:00,41.9,33.5,30.19,West,266,0.0,0.0,72,0.00,,,0.00,Wunderground v.1.15,2013-10-30 22:20:00,
2013-10-30 18:25:00,41.5,33.5,30.19,West,266,0.0,0.0,73,0.00,,,0.00,Wunderground v.1.15,2013-10-30 22:25:00,
2013-10-30 18:30:00,41.2,33.2,30.19,West,266,0.0,0.0,73,0.00,,,0.00,Wunderground v.1.15,2013-10-30 22:30:00,
2013-10-30 18:35:00,40.8,33.2,30.19,West,266,0.0,0.0,74,0.00,,,0.00,Wunderground v.1.15,2013-10-30 22:35:00,
2013-10-30 18:40:00,40.5,32.9,30.19,West,266,0.0,0.0,74,0.00,,,0.00,Wunderground v.1.15,2013-10-30 22:40:00,
2013-10-30 18:45:00,40.2,32.9,30.20,West,266,0.0,0.0,75,0.00,,,0.00,Wunderground v.1.15,2013-10-30 22:45:00,
2013-10-30 18:50:00,39.9,32.6,30.20,West,266,0.0,0.0,75,0.00,,,0.00,Wunderground v.1.15,2013-10-30 22:50:00,
2013-10-30 18:55:00,39.5,32.6,30.20,West,266,0.0,0.0,76,0.00,,,0.00,Wunderground v.1.15,2013-10-30 22:55:00,
2013-10-30 19:00:00,39.2,31.9,30.20,West,266,0.0,0.0,75,0.00,,,0.00,Wunderground v.1.15,2013-10-30 23:00:00,
2013-10-30 19:05:00,38.9,31.6,30.20,West,266,0.0,0.0,75,0.00,,,0.00,Wunderground v.1.15,2013-10-30 23:05:00,
2013-10-30 19:10:00,38.8,31.6,30.20,West,266,0.0,0.0,75,0.00,,,0.00,Wunderground v.1.15,2013-10-30 23:10:00,
2013-10-30 19:15:00,38.5,31.6,30.20,West,266,0.0,0.0,76,0.00,,,0.00,Wunderground v.1.15,2013-10-30 23:15:00,
2013-10-30 19:21:00,38.2,31.3,30.20,West,266,0.0,0.0,76,0.00,,,0.00,Wunderground v.1.15,2013-10-30 23:21:00,
2013-10-30 19:26:00,37.9,31.0,30.20,West,266,0.0,0.0,76,0.00,,,0.00,Wunderground v.1.15,2013-10-30 23:26:00,
2013-10-30 19:31:00,37.6,31.0,30.21,West,266,0.0,0.0,77,0.00,,,0.00,Wunderground v.1.15,2013-10-30 23:31:00,
2013-10-30 19:36:00,37.2,31.0,30.21,West,266,0.0,0.0,78,0.00,,,0.00,Wunderground v.1.15,2013-10-30 23:36:00,
2013-10-30 19:41:00,36.9,30.7,30.21,West,266,0.0,0.0,78,0.00,,,0.00,Wunderground v.1.15,2013-10-30 23:41:00,
2013-10-30 19:46:00,36.6,30.7,30.21,West,266,0.0,0.0,79,0.00,,,0.00,Wunderground v.1.15,2013-10-30 23:46:00,
2013-10-30 19:51:00,36.3,30.4,30.21,West,266,0.0,0.0,79,0.00,,,0.00,Wunderground v.1.15,2013-10-30 23:51:00,
2013-10-30 19:57:00,36.0,30.4,30.21,West,266,0.0,0.0,80,0.00,,,0.00,Wunderground v.1.15,2013-10-30 23:57:00,
2013-10-30 20:02:00,35.8,30.2,30.21,West,266,0.0,0.0,80,0.00,,,0.00,Wunderground v.1.15,2013-10-31 00:02:00,
2013-10-30 20:07:00,35.6,30.0,30.21,West,266,0.0,0.0,80,0.00,,,0.00,Wunderground v.1.15,2013-10-31 00:07:00,
2013-10-30 20:12:00,35.3,30.1,30.21,West,266,0.0,0.0,81,0.00,,,0.00,Wunderground v.1.15,2013-10-31 00:12:00,
2013-10-30 20:17:00,35.2,29.6,30.21,West,266,0.0,0.0,80,0.00,,,0.00,Wunderground v.1.15,2013-10-31 00:17:00,
2013-10-30 20:22:00,35.0,29.5,30.21,West,266,0.0,0.0,80,0.00,,,0.00,Wunderground v.1.15,2013-10-31 00:22:00,
2013-10-30 20:27:00,34.7,29.5,30.21,West,266,0.0,0.0,81,0.00,,,0.00,Wunderground v.1.15,2013-10-31 00:27:00,
2013-10-30 20:32:00,34.6,29.4,30.21,West,266,0.0,0.0,81,0.00,,,0.00,Wunderground v.1.15,2013-10-31 00:32:00,
2013-10-30 20:37:00,34.3,29.4,30.21,West,266,0.0,0.0,82,0.00,,,0.00,Wunderground v.1.15,2013-10-31 00:37:00,
2013-10-30 20:42:00,34.1,29.2,30.21,West,266,0.0,0.0,82,0.00,,,0.00,Wunderground v.1.15,2013-10-31 00:42:00,
2013-10-30 20:47:00,34.0,28.8,30.21,West,266,0.0,0.0,81,0.00,,,0.00,Wunderground v.1.15,2013-10-31 00:47:00,
2013-10-30 20:52:00,33.7,28.5,30.21,West,266,0.0,0.0,81,0.00,,,0.00,Wunderground v.1.15,2013-10-31 00:52:00,
2013-10-30 20:57:00,33.5,28.9,30.21,West,266,0.0,0.0,83,0.00,,,0.00,Wunderground v.1.15,2013-10-31 00:57:00,
2013-10-30 21:02:00,33.4,28.8,30.22,West,266,0.0,0.0,83,0.00,,,0.00,Wunderground v.1.15,2013-10-31 01:02:00,
2013-10-30 21:07:00,33.1,28.5,30.22,West,266,0.0,0.0,83,0.00,,,0.00,Wunderground v.1.15,2013-10-31 01:07:00,
2013-10-30 21:12:00,32.9,28.3,30.22,West,266,0.0,0.0,83,0.00,,,0.00,Wunderground v.1.15,2013-10-31 01:12:00,
2013-10-30 21:17:00,32.8,28.2,30.22,West,266,0.0,0.0,83,0.00,,,0.00,Wunderground v.1.15,2013-10-31 01:17:00,
2013-10-30 21:22:00,32.7,28.1,30.22,West,266,0.0,0.0,83,0.00,,,0.00,Wunderground v.1.15,2013-10-31 01:22:00,
2013-10-30 21:27:00,32.5,27.9,30.22,West,266,0.0,0.0,83,0.00,,,0.00,Wunderground v.1.15,2013-10-31 01:27:00,
2013-10-30 21:32:00,32.4,27.8,30.22,West,266,0.0,0.0,83,0.00,,,0.00,Wunderground v.1.15,2013-10-31 01:32:00,
2013-10-30 21:37:00,32.4,27.8,30.22,West,266,0.0,0.0,83,0.00,,,0.00,Wunderground v.1.15,2013-10-31 01:37:00,
2013-10-30 21:42:00,32.2,27.6,30.22,West,266,0.0,0.0,83,0.00,,,0.00,Wunderground v.1.15,2013-10-31 01:42:00,
2013-10-30 21:47:00,32.1,27.5,30.22,West,266,0.0,0.0,83,0.00,,,0.00,Wunderground v.1.15,2013-10-31 01:47:00,
2013-10-30 21:52:00,31.9,27.3,30.22,West,266,0.0,0.0,83,0.00,,,0.00,Wunderground v.1.15,2013-10-31 01:52:00,
2013-10-30 21:57:00,31.9,27.3,30.22,West,266,0.0,0.0,83,0.00,,,0.00,Wunderground v.1.15,2013-10-31 01:57:00,
2013-10-30 22:02:00,31.8,27.2,30.22,West,266,0.0,0.0,83,0.00,,,0.00,Wunderground v.1.15,2013-10-31 02:02:00,
2013-10-30 22:07:00,31.6,27.3,30.22,West,266,0.0,0.0,84,0.00,,,0.00,Wunderground v.1.15,2013-10-31 02:07:00,
2013-10-30 22:12:00,31.6,27.3,30.22,West,266,0.0,0.0,84,0.00,,,0.00,Wunderground v.1.15,2013-10-31 02:12:00,
2013-10-30 22:17:00,31.5,27.5,30.22,West,266,0.0,0.0,85,0.00,,,0.00,Wunderground v.1.15,2013-10-31 02:17:00,
2013-10-30 22:22:00,31.5,27.8,30.22,West,266,0.0,0.0,86,0.00,,,0.00,Wunderground v.1.15,2013-10-31 02:22:00,
2013-10-30 22:27:00,31.3,27.6,30.22,West,266,0.0,0.0,86,0.00,,,0.00,Wunderground v.1.15,2013-10-31 02:27:00,
2013-10-30 22:32:00,31.3,27.9,30.22,West,266,0.0,0.0,87,0.00,,,0.00,Wunderground v.1.15,2013-10-31 02:32:00,
2013-10-30 22:37:00,31.3,28.2,30.22,West,266,0.0,0.0,88,0.00,,,0.00,Wunderground v.1.15,2013-10-31 02:37:00,
2013-10-30 22:42:00,31.2,28.1,30.22,West,266,0.0,0.0,88,0.00,,,0.00,Wunderground v.1.15,2013-10-31 02:42:00,
2013-10-30 22:47:00,31.2,28.3,30.22,West,266,0.0,0.0,89,0.00,,,0.00,Wunderground v.1.15,2013-10-31 02:47:00,
2013-10-30 22:52:00,31.0,28.1,30.22,West,266,0.0,0.0,89,0.00,,,0.00,Wunderground v.1.15,2013-10-31 02:52:00,
2013-10-30 22:57:00,31.0,28.1,30.22,West,266,0.0,0.0,89,0.00,,,0.00,Wunderground v.1.15,2013-10-31 02:57:00,
2013-10-30 23:00:00,31.0,28.1,30.23,West,266,0.0,0.0,89,0.00,,,0.00,Wunderground v.1.15,2013-10-31 03:00:00,
2013-10-30 23:05:00,31.0,28.4,30.23,West,266,0.0,0.0,90,0.00,,,0.00,Wunderground v.1.15,2013-10-31 03:05:00,
2013-10-30 23:10:00,30.9,28.3,30.23,West,266,0.0,0.0,90,0.00,,,0.00,Wunderground v.1.15,2013-10-31 03:10:00,
2013-10-30 23:15:00,30.9,28.6,30.22,West,266,0.0,0.0,91,0.00,,,0.00,Wunderground v.1.15,2013-10-31 03:15:00,
2013-10-30 23:20:00,30.9,28.6,30.22,West,266,0.0,0.0,91,0.00,,,0.00,Wunderground v.1.15,2013-10-31 03:20:00,
2013-10-30 23:25:00,30.9,28.6,30.22,West,266,0.0,0.0,91,0.00,,,0.00,Wunderground v.1.15,2013-10-31 03:25:00,
2013-10-30 23:30:00,30.9,28.6,30.23,West,266,0.0,0.0,91,0.00,,,0.00,Wunderground v.1.15,2013-10-31 03:30:00,
2013-10-30 23:35:00,30.7,28.4,30.23,West,266,0.0,0.0,91,0.00,,,0.00,Wunderground v.1.15,2013-10-31 03:35:00,
2013-10-30 23:40:00,30.7,28.4,30.23,West,266,0.0,0.0,91,0.00,,,0.00,Wunderground v.1.15,2013-10-31 03:40:00,
2013-10-30 23:45:00,30.7,28.4,30.22,West,266,0.0,0.0,91,0.00,,,0.00,Wunderground v.1.15,2013-10-31 03:45:00,
2013-10-30 23:50:00,30.7,28.4,30.22,West,266,0.0,0.0,91,0.00,,,0.00,Wunderground v.1.15,2013-10-31 03:50:00,
2013-10-30 23:56:00,30.6,28.3,30.22,West,266,0.0,0.0,91,0.00,,,0.00,Wunderground v.1.15,2013-10-31 03:56:00,